[[{"header":{"parameterUnit":"m.s-1","parameterCategory":1,"la1":30.2991,"la2":30.254,"lo1":-89.0895,"lo2":-89.0444,"dy":0.0017,"dx":0.0017,"nx":28,"ny":28,"refTime":"2024-06-14T21:00:00:Z","depth":0,"parameterNumber":2,"parameterNumberName":"U-component_of_WINDS"},"data":[0,0,0,0,0,0,0,0,0,0,0,0,0,0,0,0,0,0,0,0,0,0,0,0,0,0,0,0,0,0,0,0,0,0,0,0,0,0,0,0,0,0,0,0,0,0,0,0,0,0,0,0,0,0,0,0,0,0,-0.7078,-0.7078,0,-0.7071,-0.7071,-0.7071,-0.7069,-0.7069,-0.7069,-0.7069,-0.7061,-0.7061,-0.7061,0,0,0,0,0,0,0,0,0,0,0,0,0,-0.7089,-0.7089,-0.7078,-0.7078,-0.7078,-0.7071,-0.7071,-0.7071,-0.7068,-0.7069,-0.7069,-0.7069,-0.7061,-0.7061,-0.706,0,0,0,0,0,0,0,0,0,0,0,0,0,-0.7083,-0.7089,-0.7078,-0.7076,-0.7075,-0.7071,-0.7071,-0.7071,-0.7068,-0.7069,-0.7069,-0.7069,-0.7061,-0.7061,-0.706,-0.7057,0,0,-0.7059,-0.7059,0,0,0,0,0,0,0,0,-0.7083,-0.7083,-0.7076,-0.7076,-0.7076,-0.7071,-0.7072,-0.7066,-0.7068,-0.7071,-0.7069,-0.7069,-0.7064,-0.7064,-0.7062,-0.7057,-0.7056,-0.7059,-0.7059,-0.7059,-0.7059,0,0,0,0,0,0,0,-0.7084,-0.7083,-0.7075,-0.7076,-0.7076,-0.7075,-0.7074,-0.7071,-0.7067,-0.7071,-0.7071,-0.707,-0.7064,-0.7062,-0.7062,-0.7056,-0.7059,-0.7059,-0.7059,-0.7059,-0.7048,-0.7048,0,0,0,0,0,0,-0.7085,-0.7083,-0.7075,-0.7075,-0.708,-0.7075,-0.7074,-0.7072,-0.7067,-0.7067,-0.707,-0.707,-0.7063,-0.7062,-0.7062,-0.7057,-0.7059,-0.7059,-0.7058,-0.7048,-0.7048,-0.7048,0,0,0,0,0,0,-0.7085,-0.7084,-0.7075,-0.7079,-0.7078,-0.7075,-0.7072,-0.7072,-0.707,-0.7067,-0.7066,-0.7069,-0.7063,-0.7062,-0.7058,-0.7057,-0.7058,-0.7058,-0.7048,-0.7048,-0.7048,-0.7049,0,0,0,0,0,0,-0.7085,-0.7084,-0.7083,-0.7079,-0.7078,-0.7072,-0.7072,-0.7072,-0.707,-0.707,-0.7066,-0.7065,-0.7063,-0.7059,-0.7058,-0.7057,-0.7058,-0.7048,-0.7048,-0.7048,-0.7049,-0.7049,-0.7049,0,0,0,0,0,-0.7086,-0.7083,-0.7083,-0.7082,-0.7076,-0.7072,-0.7072,-0.707,-0.707,-0.7068,-0.7066,-0.7065,-0.7057,-0.7058,-0.7057,-0.7056,-0.7048,-0.7048,-0.7048,-0.7049,-0.7049,-0.7049,0,0,0,0,0,0,-0.7087,-0.7083,-0.7082,-0.7079,-0.7076,-0.7072,-0.707,-0.7069,-0.7066,-0.7066,-0.7064,-0.7063,-0.7059,-0.7057,-0.7059,-0.7053,-0.7053,-0.7053,-0.7054,-0.7054,-0.7054,-0.7055,-0.7058,0,0,0,0,0,-0.7087,-0.7084,-0.7081,-0.7078,-0.7077,-0.7074,-0.7072,-0.7071,-0.7068,-0.7066,-0.7064,-0.7061,-0.7058,-0.7056,-0.7053,-0.7049,-0.7048,-0.7048,-0.7047,-0.7047,-0.7047,-0.7045,-0.7045,-0.7048,-0.7048,-0.7048,0,0,-0.7087,-0.7084,-0.7083,-0.7078,-0.7076,-0.7073,-0.7073,-0.707,-0.7068,-0.7066,-0.7062,-0.706,-0.7057,-0.7053,-0.7051,-0.7051,-0.7046,-0.7047,-0.7047,-0.7047,-0.7045,-0.7045,-0.7044,-0.7047,-0.7047,-0.7047,0,0,-0.7085,-0.7083,-0.708,-0.7078,-0.7075,-0.7073,-0.7072,-0.7068,-0.7067,-0.7063,-0.7062,-0.7059,-0.7054,-0.7052,-0.705,-0.7047,-0.7046,-0.7046,-0.7046,-0.7044,-0.7043,-0.7043,-0.7042,-0.7042,-0.7046,-0.7046,-0.7046,0,-0.7085,-0.7081,-0.7079,-0.7076,-0.7074,-0.7073,-0.707,-0.7068,-0.7064,-0.7062,-0.7062,-0.7056,-0.7053,-0.7049,-0.7048,-0.7047,-0.7046,-0.7047,-0.7044,-0.7043,-0.7043,-0.7042,-0.7042,-0.7046,-0.7046,-0.7046,-0.7046,0,-0.7081,-0.7078,-0.7077,-0.7073,-0.7071,-0.7068,-0.7066,-0.7064,-0.7062,-0.706,-0.7057,-0.7054,-0.705,-0.7049,-0.7048,-0.7045,-0.7045,-0.7044,-0.7044,-0.7043,-0.7042,-0.7042,-0.7046,-0.7046,-0.7046,-0.7046,0,0,-0.708,-0.7075,-0.7075,-0.7073,-0.7069,-0.7067,-0.7064,-0.7061,-0.7059,-0.7056,-0.7054,-0.7049,-0.7049,-0.7047,-0.7045,-0.7044,-0.7042,-0.7043,-0.7043,-0.7043,-0.7038,-0.7039,-0.7038,-0.7041,-0.7041,-0.7041,-0.7038,0,-0.7078,-0.7073,-0.7071,-0.7067,-0.7064,-0.7063,-0.706,-0.7058,-0.7056,-0.7053,-0.7051,-0.7048,-0.7048,-0.7046,-0.7045,-0.7042,-0.7041,-0.7042,-0.7039,-0.7039,-0.704,-0.7038,-0.7038,-0.7036,-0.7038,-0.7038,-0.7038,0,-0.7075,-0.7072,-0.7068,-0.7064,-0.7063,-0.7061,-0.7058,-0.7055,-0.7052,-0.7051,-0.7049,-0.7047,-0.7044,-0.7044,-0.704,-0.7041,-0.704,-0.7038,-0.7038,-0.7038,-0.7038,-0.7037,-0.7035,-0.7035,-0.7037,-0.7037,-0.7037,0,-0.7074,-0.707,-0.7066,-0.7065,-0.7061,-0.7059,-0.7058,-0.7055,-0.7053,-0.705,-0.7049,-0.7045,-0.7044,-0.7041,-0.7039,-0.7039,-0.7035,-0.7035,-0.7033,-0.7034,-0.7033,-0.7033,-0.703,-0.7031,-0.7031,-0.7031,-0.7031,0,-0.7072,-0.707,-0.7066,-0.7064,-0.7062,-0.7059,-0.7056,-0.7054,-0.7052,-0.7049,-0.7048,-0.7046,-0.7043,-0.704,-0.7038,-0.7035,-0.7034,-0.7033,-0.7032,-0.7033,-0.7033,-0.7032,-0.7032,-0.7031,-0.7031,-0.7031,-0.7031,0,-0.7071,-0.7069,-0.7065,-0.7062,-0.7061,-0.7059,-0.7056,-0.7054,-0.7052,-0.7049,-0.7048,-0.7045,-0.7042,-0.7039,-0.7035,-0.7034,-0.7031,-0.703,-0.7032,-0.7031,-0.703,-0.703,-0.7027,-0.7026,-0.7028,-0.7028,-0.7028,0,-0.707,-0.7068,-0.7064,-0.7063,-0.7061,-0.7058,-0.7056,-0.7054,-0.7052,-0.7049,-0.7047,-0.7044,-0.7041,-0.7036,-0.7033,-0.703,-0.703,-0.7029,-0.7029,-0.703,-0.703,-0.703,-0.703,-0.7028,-0.7028,-0.7028,-0.7028,0,-0.7068,-0.7067,-0.7064,-0.7061,-0.7059,-0.7057,-0.7054,-0.7053,-0.705,-0.7048,-0.7045,-0.7043,-0.7039,-0.7035,-0.7032,-0.703,-0.7029,-0.7028,-0.7028,-0.7029,-0.703,-0.7029,-0.7032,-0.7028,-0.7028,-0.7028,-0.7028,-0.7028,-0.7067,-0.7065,-0.7062,-0.706,-0.7057,-0.7055,-0.7053,-0.7051,-0.7048,-0.7045,-0.7044,-0.704,-0.7037,-0.7033,-0.7031,-0.7028,-0.7028,-0.7027,-0.7027,-0.7027,-0.7027,-0.703,-0.7027,-0.7027,-0.7027,-0.7027,-0.7027,0,-0.7065,-0.7063,-0.7061,-0.7057,-0.7055,-0.7054,-0.7051,-0.7049,-0.7047,-0.7044,-0.7041,-0.7038,-0.7035,-0.7032,-0.7028,-0.7027,-0.7026,-0.7026,-0.7026,-0.7026,-0.7027,-0.7028,-0.7027,-0.7027,-0.7027,-0.7027,-0.7027,-0.7027,-0.7064,-0.7061,-0.7059,-0.7055,-0.7053,-0.705,-0.7049,-0.7047,-0.7044,-0.7041,-0.7038,-0.7036,-0.7033,-0.703,-0.7027,-0.7026,-0.7025,-0.7025,-0.7024,-0.7026,-0.7026,-0.7026,-0.7026,-0.7025,-0.7025,-0.7023,-0.7023,-0.7023]},{"header":{"parameterUnit":"m.s-1","parameterCategory":1,"la1":30.2991,"la2":30.254,"lo1":-89.0895,"lo2":-89.0444,"dy":0.0017,"dx":0.0017,"nx":28,"ny":28,"refTime":"2024-06-14T21:00:00:Z","depth":0,"parameterNumber":3,"parameterNumberName":"V-component_of_WINDS"},"data":[0,0,0,0,0,0,0,0,0,0,0,0,0,0,0,0,0,0,0,0,0,0,0,0,0,0,0,0,0,0,0,0,0,0,0,0,0,0,0,0,0,0,0,0,0,0,0,0,0,0,0,0,0,0,0,0,0,0,-0.7288,-0.7288,0,-0.7262,-0.7262,-0.7261,-0.7207,-0.7206,-0.7205,-0.7204,-0.7179,-0.7179,-0.718,0,0,0,0,0,0,0,0,0,0,0,0,0,-0.7294,-0.7294,-0.7288,-0.7288,-0.7287,-0.7262,-0.7262,-0.7261,-0.7207,-0.7206,-0.7205,-0.7203,-0.7179,-0.7179,-0.718,0,0,0,0,0,0,0,0,0,0,0,0,0,-0.7282,-0.7294,-0.7288,-0.7257,-0.7254,-0.7262,-0.7261,-0.7261,-0.7208,-0.7206,-0.7204,-0.7203,-0.7179,-0.7179,-0.718,-0.7216,0,0,-0.7182,-0.7182,0,0,0,0,0,0,0,0,-0.7283,-0.7282,-0.7262,-0.7259,-0.7256,-0.7236,-0.7254,-0.7246,-0.7208,-0.7225,-0.7204,-0.7202,-0.72,-0.7198,-0.7197,-0.7215,-0.7214,-0.7182,-0.7182,-0.7182,-0.7182,0,0,0,0,0,0,0,-0.7284,-0.7283,-0.7278,-0.7262,-0.7258,-0.7246,-0.7242,-0.7253,-0.7222,-0.7224,-0.722,-0.7217,-0.7198,-0.7197,-0.7196,-0.7213,-0.7182,-0.7182,-0.7182,-0.7183,-0.7261,-0.7263,0,0,0,0,0,0,-0.7289,-0.7284,-0.7278,-0.7277,-0.7266,-0.7247,-0.7243,-0.7244,-0.7222,-0.7217,-0.7219,-0.7215,-0.7197,-0.7195,-0.7195,-0.7237,-0.7182,-0.7183,-0.7183,-0.726,-0.7262,-0.7264,0,0,0,0,0,0,-0.7289,-0.7289,-0.7279,-0.7279,-0.7277,-0.7249,-0.725,-0.7245,-0.7243,-0.7218,-0.7212,-0.7223,-0.7195,-0.7194,-0.7211,-0.7235,-0.7183,-0.7183,-0.7258,-0.726,-0.7263,-0.7321,0,0,0,0,0,0,-0.7289,-0.7289,-0.7302,-0.728,-0.7277,-0.7296,-0.7252,-0.7245,-0.7244,-0.7239,-0.7221,-0.7216,-0.7194,-0.7211,-0.7212,-0.7235,-0.7184,-0.7255,-0.7259,-0.7262,-0.7316,-0.7325,-0.7332,0,0,0,0,0,-0.729,-0.7319,-0.7303,-0.7302,-0.7292,-0.7297,-0.7296,-0.7269,-0.7246,-0.7259,-0.7243,-0.7217,-0.7232,-0.7213,-0.7214,-0.7238,-0.7254,-0.7258,-0.7262,-0.7313,-0.7323,-0.7332,0,0,0,0,0,0,-0.7345,-0.7315,-0.7297,-0.732,-0.7311,-0.7288,-0.7303,-0.728,-0.7279,-0.7274,-0.7241,-0.7238,-0.726,-0.725,-0.7229,-0.7272,-0.7239,-0.7243,-0.7278,-0.7287,-0.7295,-0.7297,-0.7184,0,0,0,0,0,-0.7359,-0.7365,-0.7339,-0.7362,-0.7359,-0.7332,-0.7333,-0.7313,-0.7303,-0.73,-0.7285,-0.7277,-0.728,-0.7283,-0.7284,-0.7315,-0.7311,-0.7332,-0.7339,-0.7346,-0.735,-0.7368,-0.7377,-0.7277,-0.7277,-0.7277,0,0,-0.739,-0.7374,-0.738,-0.7373,-0.7364,-0.7371,-0.7329,-0.7339,-0.7345,-0.7301,-0.7317,-0.7306,-0.7295,-0.732,-0.7329,-0.7312,-0.7377,-0.7351,-0.7356,-0.7357,-0.7373,-0.7382,-0.7391,-0.728,-0.7279,-0.7279,0,0,-0.7449,-0.7438,-0.7456,-0.7448,-0.7435,-0.7418,-0.7422,-0.7403,-0.7394,-0.7409,-0.7377,-0.7384,-0.739,-0.7384,-0.7382,-0.7441,-0.7417,-0.7443,-0.7484,-0.7501,-0.7509,-0.7516,-0.7539,-0.7547,-0.7447,-0.7447,-0.7447,0,-0.7489,-0.7498,-0.7469,-0.748,-0.7479,-0.744,-0.746,-0.7454,-0.7442,-0.7443,-0.7423,-0.7431,-0.7421,-0.7444,-0.7459,-0.7458,-0.7464,-0.7445,-0.751,-0.7517,-0.7523,-0.7544,-0.7553,-0.745,-0.745,-0.745,-0.7449,0,-0.7548,-0.7556,-0.7572,-0.7562,-0.7563,-0.7578,-0.7552,-0.7556,-0.7537,-0.7522,-0.7539,-0.7526,-0.7525,-0.7528,-0.7509,-0.755,-0.754,-0.7516,-0.7482,-0.7536,-0.7556,-0.7564,-0.7455,-0.7454,-0.7453,-0.7452,0,0,-0.7641,-0.7616,-0.7622,-0.7618,-0.7602,-0.7607,-0.7622,-0.7621,-0.7626,-0.762,-0.7632,-0.7639,-0.7617,-0.7615,-0.7595,-0.761,-0.766,-0.7584,-0.7584,-0.76,-0.7706,-0.7725,-0.7735,-0.7644,-0.7645,-0.7646,-0.7707,0,-0.7698,-0.7721,-0.7695,-0.7724,-0.7732,-0.7696,-0.7709,-0.7701,-0.7688,-0.7693,-0.7678,-0.7684,-0.7654,-0.7653,-0.7666,-0.7651,-0.7681,-0.7646,-0.7657,-0.7658,-0.7662,-0.7745,-0.7764,-0.7823,-0.7715,-0.7716,-0.7717,0,-0.7767,-0.7764,-0.7794,-0.7778,-0.778,-0.7792,-0.779,-0.7794,-0.7786,-0.7775,-0.7773,-0.775,-0.7765,-0.7731,-0.7752,-0.7729,-0.7732,-0.7726,-0.7727,-0.7728,-0.7691,-0.7749,-0.784,-0.785,-0.7728,-0.7727,-0.7727,0,-0.7834,-0.7837,-0.7856,-0.7853,-0.7834,-0.7844,-0.7837,-0.7826,-0.7828,-0.7826,-0.7827,-0.7827,-0.7828,-0.7829,-0.7807,-0.7784,-0.7831,-0.7796,-0.7824,-0.7825,-0.7836,-0.7836,-0.7931,-0.7836,-0.7836,-0.7836,-0.7836,0,-0.79,-0.792,-0.7886,-0.7898,-0.792,-0.7891,-0.7914,-0.7903,-0.7894,-0.7904,-0.7873,-0.7883,-0.7852,-0.786,-0.7842,-0.7863,-0.7863,-0.7856,-0.7852,-0.786,-0.7861,-0.7862,-0.7858,-0.7838,-0.7838,-0.7837,-0.7837,0,-0.7978,-0.7956,-0.7974,-0.7955,-0.7951,-0.7968,-0.7952,-0.7963,-0.7948,-0.7961,-0.7962,-0.7939,-0.7946,-0.7924,-0.7928,-0.7916,-0.7947,-0.7935,-0.7951,-0.7947,-0.7978,-0.7976,-0.8077,-0.809,-0.7987,-0.7988,-0.7988,0,-0.8023,-0.8037,-0.802,-0.8024,-0.8019,-0.8026,-0.8027,-0.8,-0.8003,-0.7995,-0.8008,-0.8012,-0.8015,-0.8028,-0.8012,-0.8015,-0.8004,-0.804,-0.8005,-0.8013,-0.8007,-0.8007,-0.8009,-0.8047,-0.8049,-0.805,-0.805,0,-0.8105,-0.8093,-0.8097,-0.8097,-0.81,-0.8098,-0.8095,-0.8101,-0.8071,-0.8077,-0.8084,-0.8086,-0.809,-0.8096,-0.8096,-0.8089,-0.8066,-0.8061,-0.8069,-0.8078,-0.8086,-0.8084,-0.7972,-0.8059,-0.8059,-0.8058,-0.8057,-0.8057,-0.8168,-0.818,-0.8171,-0.8176,-0.8171,-0.8169,-0.8178,-0.8165,-0.817,-0.8171,-0.8155,-0.8166,-0.8159,-0.8156,-0.8152,-0.8161,-0.8145,-0.8155,-0.8158,-0.8161,-0.8167,-0.8084,-0.8161,-0.8161,-0.816,-0.816,-0.816,0,-0.825,-0.8242,-0.8247,-0.8244,-0.8249,-0.8226,-0.8221,-0.8227,-0.8237,-0.8232,-0.8235,-0.8244,-0.825,-0.8235,-0.8239,-0.8249,-0.8239,-0.8251,-0.8251,-0.825,-0.818,-0.8174,-0.826,-0.826,-0.826,-0.826,-0.826,-0.826,-0.8293,-0.8313,-0.8301,-0.8318,-0.831,-0.8321,-0.8321,-0.8319,-0.8315,-0.8327,-0.8331,-0.8321,-0.8313,-0.8316,-0.8321,-0.8317,-0.832,-0.8337,-0.8329,-0.8264,-0.8255,-0.8245,-0.824,-0.8338,-0.8338,-0.8398,-0.8399,-0.8399]}]]